STARLINK-30315, 57708

Orbit data source: Space-Track

STARLINK-30315, 57708 is a payload satellite owned by SpaceX/Seattle (US) in LEO that was launched on Sun, 27 Aug 2023 UTC via an FALCON 9 launch vehicle from the Air Force Eastern Test Range (AFETR). Payload-class satellites include a variety of spacecraft equipped with specific instruments for various scientific and technological missions. These include communications satellites like Starlink; space stations such as the ISS; scientific satellites like the Hubble; Earth observation satellites from companies like Planet Labs, Umbra, and HawkEye 360; GPS; miniature CubeSats for education and research; and military/defense satellites.

Loading next visibility...
Identifier
57708, 2023-129L
Orbit
LEO
Country
Flag of USUS
Related business
Manufacturer
SpaceX/Seattle
Mission
Operational Commercial Communications
Bus & Motor
STARLINK V2M, Unknown motor
Mass
730 kg wet, ~700 kg dry
Launch date (UTC)
2023-08-27 (3 years ago)
Launch vehicle
FALCON 9
Launch site
Air Force Eastern Test Range (AFETR)
Object type
Payload
Rocket body
Debris
Shape & HBR
Box + 2 Pan, 17.7 m
Radar Cross Section
33.884 m², Large (>1 m²)

Expand to show TLE details & history
Last TLE update: 2 days ago

TLE from 2 days ago
0 STARLINK-30315
1 57708U 23129L   26171.28363461 -.00000534  00000-0 -98799-5 0  9995
2 57708  43.0027 258.4533 0001222 233.5758 126.4981 15.27552045156374
Epoch: 2026-06-20T06:48Z
TLE epoch observation values (Epoch: 2026-06-20T06:48:26.030Z)
Latitude
-0.00002°
Longitude
-112.15565°
Altitude
483.407 km
Speed
7.625 km/s
True Right ascension
17h 13m 48s
True Declination
0° 00' 00"
Sunlit
Object was in full shadow at epoch
Visualization orbit readout
Latitude
Unknown
Longitude
Unknown
Altitude
Unknown
Speed
Unknown
Apparent Right ascension
Unknown
Apparent Declination
Unknown
Sunlit
N/A
Visualization observer readout
Local Sidereal Time
21:28:38
Azimuth
Unknown
Elevation
Unknown
Doppler factor
Unknown
Orbital elements
Apogee altitude
485.916 km
Perigee altitude
484.239 km
Semi-major axis
6,863.215 km
Eccentricity
0.00012
Inclination
43.0027°
RAAN
258.4533°
Arg. of periapsis
233.5758°
True anomaly
126.50936°
Mean anomaly
126.4981°
Eccentric anomaly
126.50373°
Mean motion
3.81726 °/min
Orbital period
94.31 mins
BSTAR
-0.0000098799
Loading maneuver chart data...
Computing Atmospheric mass density...
Loading historical data...
Loading historical data...
Loading historical data...
Loading historical data...
Loading historical data...
Loading historical data...
Loading historical data...

Documentation

Showing up to 5 results
|